Date String (YYYY-MM-DD hh:mm:ss) UTC,Instrument flags,absolute air pressure of the measurement (hPa),sample flow rate (lpm),inlet stack bypass flow (lpm),air temperature of the measurement (°C),ambient temperature measured by the external sensor (°C),aerosol sample conditioner tube jacket temperature (°C),OPC LED temperature (°C),internal box temperature (°C),relative humidity of the measurement (%),span deviation,mass concentration of particles derived from Lorenz-Mie calculation of OPC scattering (μg/m³),mass concentration of particles derived from Lorenz-Mie calculation of OPC scattering (μg/m³),mass concentration of particles derived from Lorenz-Mie calculation of OPC scattering (μg/m³)
DateTimeUTC,F1_M11,P_M11,Q1_M11,Q2_M11,T1_M11,T2_M11,T3_M11,T4_M11,T5_M11,U1_M11,ZSPAN_M11,X0_M11,X2_M11,X1_M11
2023-05-31 17:00:00,SystemResetWarning,0827.1,5.00,000.00,028.4,027.2,000.0,036.6,030.1,26.5,0000.0,0019.10,0005.25,0003.65
2023-05-31 17:01:00,SystemResetWarning,0827.0,5.00,000.00,028.4,027.2,000.0,036.6,030.1,26.3,0000.0,0017.65,0005.27,0003.65
2023-05-31 17:02:00,SystemResetWarning,0827.1,4.99,000.00,028.4,027.3,000.0,036.7,030.1,27.6,0000.0,0016.59,0005.28,0003.66
2023-05-31 17:03:00,SystemResetWarning,0827.0,5.01,000.00,028.4,027.3,000.0,036.7,030.1,25.8,0000.0,0016.84,0005.22,0003.66
2023-05-31 17:04:00,SystemResetWarning,0827.0,5.00,000.00,028.4,027.3,000.0,036.7,030.2,26.0,0000.0,0017.70,0005.17,0003.65
2023-05-31 17:05:00,SystemResetWarning,0827.0,4.99,000.00,028.5,027.3,000.0,036.7,030.2,26.1,0000.0,0017.01,0005.19,0003.65
2023-05-31 17:06:00,SystemResetWarning,0827.0,5.00,000.00,028.5,027.4,000.0,036.7,030.2,26.5,0000.0,0017.15,0005.19,0003.64
2023-05-31 17:07:00,SystemResetWarning,0827.0,5.00,000.00,028.5,027.4,000.0,036.7,030.2,26.8,0000.0,0017.09,0005.18,0003.62
2023-05-31 17:08:00,SystemResetWarning,0827.0,5.00,000.00,028.5,027.4,000.0,036.8,030.2,27.0,0000.0,0018.22,0005.21,0003.63
2023-05-31 17:09:00,SystemResetWarning,0826.9,5.01,000.00,028.6,027.4,000.0,036.8,030.3,26.2,0000.0,0017.74,0005.15,0003.61
2023-05-31 17:10:00,SystemResetWarning,0827.0,5.00,000.00,028.6,027.5,000.0,036.8,030.3,26.2,0000.0,0018.04,0005.14,0003.62
2023-05-31 17:11:00,SystemResetWarning,0827.0,5.00,000.00,028.6,027.5,000.0,036.8,030.3,26.4,0000.0,0018.92,0005.14,0003.64
2023-05-31 17:12:00,SystemResetWarning,0827.0,4.99,000.00,028.6,027.5,000.0,036.8,030.3,26.1,0000.0,0018.32,0005.10,0003.65
2023-05-31 17:13:00,SystemResetWarning,0826.9,4.99,000.00,028.7,027.5,000.0,036.9,030.4,26.3,0000.0,0018.22,0005.11,0003.64
2023-05-31 17:14:00,SystemResetWarning,0827.0,5.00,000.00,028.7,027.6,000.0,036.9,030.4,26.6,0000.0,0018.02,0005.14,0003.62
2023-05-31 17:15:00,SystemResetWarning,0826.9,5.01,000.00,028.7,027.6,000.0,036.9,030.4,25.6,0000.0,0016.76,0005.15,0003.62
2023-05-31 17:16:00,SystemResetWarning,0826.9,5.00,000.00,028.7,027.6,000.0,036.9,030.4,25.3,0000.0,0016.10,0005.16,0003.61
2023-05-31 17:17:00,SystemResetWarning,0827.0,4.99,000.00,028.8,027.7,000.0,037.0,030.5,25.7,0000.0,0016.12,0005.16,0003.60
2023-05-31 17:18:00,SystemResetWarning,0826.9,5.00,000.00,028.8,027.7,000.0,037.0,030.5,25.7,0000.0,0017.50,0005.14,0003.60
2023-05-31 17:19:00,SystemResetWarning,0826.9,4.99,000.00,028.8,027.7,000.0,037.0,030.5,25.3,0000.0,0016.73,0005.06,0003.59
2023-05-31 17:20:00,SystemResetWarning,0826.9,5.00,000.00,028.8,027.7,000.0,037.0,030.6,26.0,0000.0,0016.50,0005.06,0003.59
2023-05-31 17:21:00,SystemResetWarning,0826.9,5.00,000.00,028.9,027.8,000.0,037.1,030.6,26.2,0000.0,0015.33,0004.97,0003.56
2023-05-31 17:22:00,SystemResetWarning,0826.9,5.00,000.00,028.9,027.8,000.0,037.1,030.6,26.4,0000.0,0014.29,0004.89,0003.53
2023-05-31 17:23:00,SystemResetWarning,0826.9,5.00,000.00,028.9,027.8,000.0,037.1,030.6,26.7,0000.0,0014.92,0004.90,0003.53
2023-05-31 17:24:00,SystemResetWarning,0826.9,5.00,000.00,028.9,027.8,000.0,037.1,030.6,26.4,0000.0,0015.49,0004.92,0003.52
2023-05-31 17:25:00,SystemResetWarning,0826.9,5.00,000.00,028.9,027.9,000.0,037.1,030.7,26.7,0000.0,0016.67,0004.92,0003.53
2023-05-31 17:26:00,SystemResetWarning,0826.9,5.00,000.00,029.0,027.9,000.0,037.2,030.7,27.2,0000.0,0016.80,0004.90,0003.53
2023-05-31 17:27:00,SystemResetWarning,0826.9,5.00,000.00,029.0,027.9,000.0,037.2,030.7,27.3,0000.0,0016.83,0004.86,0003.53
2023-05-31 17:28:00,SystemResetWarning,0826.9,5.00,000.00,029.0,027.9,000.0,037.2,030.7,27.8,0000.0,0017.04,0004.84,0003.53
2023-05-31 17:29:00,SystemResetWarning,0826.9,5.00,000.00,029.0,028.0,000.0,037.2,030.8,27.1,0000.0,0016.20,0004.87,0003.54
2023-05-31 17:30:00,SystemResetWarning,0826.9,5.00,000.00,029.1,028.0,000.0,037.3,030.8,27.0,0000.0,0015.21,0004.88,0003.55
2023-05-31 17:31:00,SystemResetWarning,0826.9,5.00,000.00,029.1,028.0,000.0,037.3,030.8,26.7,0000.0,0014.57,0004.82,0003.54
2023-05-31 17:32:00,SystemResetWarning,0826.7,4.99,000.00,029.1,028.0,000.0,037.3,030.8,26.2,0000.0,0015.13,0004.87,0003.56
2023-05-31 17:33:00,SystemResetWarning,0826.8,5.00,000.00,029.1,028.0,000.0,037.3,030.8,26.6,0000.0,0016.09,0004.97,0003.59
2023-05-31 17:34:00,SystemResetWarning,0826.8,5.00,000.00,029.1,028.1,000.0,037.4,030.8,26.2,0000.0,0015.15,0005.02,0003.60
2023-05-31 17:35:00,SystemResetWarning,0826.8,5.00,000.00,029.2,028.1,000.0,037.4,030.9,26.8,0000.0,0014.83,0005.04,0003.63
2023-05-31 17:36:00,SystemResetWarning,0826.7,5.00,000.00,029.2,028.2,000.0,037.4,030.9,27.1,0000.0,0014.07,0004.99,0003.65
2023-05-31 17:37:00,SystemResetWarning,0826.7,5.00,000.00,029.2,028.2,000.0,037.4,030.9,26.5,0000.0,0014.40,0005.00,0003.66
2023-05-31 17:38:00,SystemResetWarning,0826.7,5.01,000.00,029.3,028.2,000.0,037.5,031.0,27.4,0000.0,0014.53,0005.00,0003.68
2023-05-31 17:39:00,SystemResetWarning,0826.6,5.00,000.00,029.3,028.2,000.0,037.5,031.0,26.1,0000.0,0014.63,0005.03,0003.70
2023-05-31 17:40:00,SystemResetWarning,0826.6,5.00,000.00,029.3,028.2,000.0,037.5,031.0,25.4,0000.0,0013.64,0004.96,0003.69
2023-05-31 17:41:00,SystemResetWarning,0826.6,5.00,000.00,029.3,028.3,000.0,037.5,031.0,26.3,0000.0,0014.86,0004.97,0003.68
2023-05-31 17:42:00,SystemResetWarning,0826.6,5.00,000.00,029.4,028.3,000.0,037.6,031.1,25.8,0000.0,0015.14,0005.04,0003.70
2023-05-31 17:43:00,SystemResetWarning,0826.6,5.00,000.00,029.4,028.3,000.0,037.6,031.1,26.2,0000.0,0014.90,0005.05,0003.69
2023-05-31 17:44:00,SystemResetWarning,0826.6,5.00,000.00,029.4,028.4,000.0,037.6,031.1,25.9,0000.0,0014.25,0005.02,0003.68
2023-05-31 17:45:00,SystemResetWarning,0826.6,5.00,000.00,029.4,028.4,000.0,037.6,031.1,25.9,0000.0,0014.72,0004.95,0003.68
2023-05-31 17:46:00,SystemResetWarning,0826.7,5.00,000.00,029.5,028.4,000.0,037.7,031.2,26.6,0000.0,0015.09,0004.94,0003.67
2023-05-31 17:47:00,SystemResetWarning,0826.8,4.98,000.00,029.5,028.5,000.0,037.7,031.2,26.0,0000.0,0014.88,0004.94,0003.66
2023-05-31 17:48:00,SystemResetWarning,0826.7,4.99,000.00,029.5,028.0,000.0,037.7,031.2,24.6,0000.0,0014.56,0004.92,0003.66
2023-05-31 17:49:00,SystemResetWarning,0826.7,5.01,000.00,029.5,026.6,000.0,037.6,031.0,24.0,0000.0,0015.49,0004.94,0003.65
2023-05-31 17:50:00,SystemResetWarning,0826.7,5.00,000.00,029.5,026.3,000.0,037.6,030.9,22.9,0000.0,0015.99,0004.95,0003.62
2023-05-31 17:51:00,SystemResetWarning,0826.6,5.01,000.00,029.4,026.4,000.0,037.6,030.8,22.9,0000.0,0016.09,0004.94,0003.61
2023-05-31 17:52:00,SystemResetWarning,0826.6,5.00,000.00,029.4,026.6,000.0,037.6,030.8,23.8,0000.0,0015.85,0004.92,0003.62
2023-05-31 17:53:00,SystemResetWarning,0826.6,5.00,000.00,029.4,026.9,000.0,037.6,030.9,24.3,0000.0,0015.56,0004.89,0003.61
2023-05-31 17:54:00,SystemResetWarning,0826.6,5.00,000.00,029.3,027.1,000.0,037.6,030.9,24.4,0000.0,0017.04,0004.87,0003.60
2023-05-31 17:55:00,SystemResetWarning,0826.6,5.00,000.00,029.3,027.3,000.0,037.6,030.9,24.1,0000.0,0016.83,0004.86,0003.60
2023-05-31 17:56:00,SystemResetWarning,0826.6,5.00,000.00,029.4,027.5,000.0,037.6,030.9,23.9,0000.0,0016.09,0004.83,0003.57
2023-05-31 17:57:00,SystemResetWarning,0826.6,5.00,000.00,029.4,027.7,000.0,037.6,031.0,24.1,0000.0,0016.18,0004.81,0003.55
2023-05-31 17:58:00,SystemResetWarning,0826.6,5.00,000.00,029.4,027.8,000.0,037.7,031.0,24.0,0000.0,0018.18,0004.90,0003.56
2023-05-31 17:59:00,SystemResetWarning,0826.6,5.00,000.00,029.4,027.9,000.0,037.7,031.0,23.1,0000.0,0018.20,0004.95,0003.56
